EW0139 Weather Reports


time (UTC)temp
C
wind
direction
speed
KPH
gust
KPH
rain 1hr
cm
rain 24hr
cm
rain mn
cm
humidity
%
barometer
mb
20260901022300 18 285 1.6 3.2 0.00 0.00 0.00 42 1013.0
20260901020741 20 285 4.8 8.0 0.00 0.00 0.00 38 1013.0
20260901015250 21 288 6.4 9.7 0.00 0.00 0.00 36 1012.7
20260901013752 22 281 9.7 20.9 0.00 0.00 0.00 35 1012.6
20260901012314 23 281 16.1 17.7 0.00 0.00 0.00 34 1012.4
20260901010800 24 280 20.9 24.1 0.00 0.00 0.00 33 1012.2
20260901005302 24 283 22.5 33.8 0.00 0.00 0.00 32 1012.2
20260901003741 25 285 24.1 27.4 0.00 0.00 0.00 32 1012.1
20260901002249 25 279 25.7 35.4 0.00 0.00 0.00 32 1012.1
20260901000750 25 290 22.5 38.6 0.00 0.00 0.00 31 1011.9
20260831235255 25 257 38.6 38.6 0.00 0.00 0.00 32 1012.0
20260831233756 25 288 22.5 45.1 0.00 0.00 0.00 32 1011.9
20260831232257 25 274 30.6 38.6 0.00 0.00 0.00 32 1012.0
20260831230745 25 263 37.0 37.0 0.00 0.00 0.00 32 1011.9
20260831225246 25 272 29.0 45.1 0.00 0.00 0.00 31 1012.0
20260831223807 25 273 32.2 40.2 0.00 0.00 0.00 31 1012.1
20260831222250 26 277 30.6 43.5 0.00 0.00 0.00 31 1012.1
20260831220752 25 291 35.4 46.7 0.00 0.00 0.00 31 1011.9
20260831215314 25 242 27.4 45.1 0.00 0.00 0.00 32 1011.7
20260831213740 25 298 30.6 51.5 0.00 0.00 0.00 31 1011.9
20260831212243 25 281 38.6 49.9 0.00 0.00 0.00 32 1011.9
20260831210752 25 298 43.5 48.3 0.00 0.00 0.00 31 1011.8
20260831205252 25 273 22.5 38.6 0.00 0.00 0.00 32 1012.0
20260831203752 25 264 22.5 48.3 0.00 0.00 0.00 34 1012.1
20260831202257 24 271 45.1 46.7 0.00 0.00 0.00 35 1011.9
20260831200818 25 268 30.6 48.3 0.00 0.00 0.00 35 1011.1
20260831195319 24 274 29.0 51.5 0.00 0.00 0.00 36 1011.1
20260831193741 24 283 48.3 48.3 0.00 0.00 0.00 35 1011.0
20260831192242 24 267 48.3 49.9 0.00 0.00 0.00 36 1011.1
20260831190749 23 270 29.0 51.5 0.00 0.00 0.00 36 1011.1
20260831185254 24 287 33.8 48.3 0.00 0.00 0.00 36 1011.1
20260831183757 23 287 49.9 54.7 0.00 0.00 0.00 37 1010.9
20260831182300 23 275 35.4 49.9 0.00 0.00 0.00 37 1010.9
20260831180742 23 284 40.2 48.3 0.00 0.00 0.00 40 1010.9
20260831175249 23 243 37.0 48.3 0.00 0.00 0.00 40 1010.8
20260831173749 22 234 33.8 51.5 0.00 0.00 0.00 41 1010.9
20260831172249 22 281 45.1 51.5 0.00 0.00 0.00 42 1010.9
20260831170754 21 246 32.2 48.3 0.00 0.00 0.00 43 1010.9
20260831165315 21 252 41.8 46.7 0.00 0.00 0.00 43 1010.7
20260831163755 21 269 40.2 51.5 0.00 0.00 0.00 44 1010.4
20260831162241 21 264 41.8 48.3 0.00 0.00 0.00 44 1010.3
20260831160801 20 269 40.2 46.7 0.00 0.00 0.00 45 1010.1
20260831155246 20 258 30.6 46.7 0.00 0.00 0.00 46 1010.3
20260831153749 19 246 41.8 45.1 0.00 0.00 0.00 47 1010.1
20260831152249 18 230 29.0 46.7 0.00 0.00 0.00 47 1010.0
20260831150753 17 250 22.5 38.6 0.00 0.00 0.00 48 1010.0
20260831145316 16 241 22.5 38.6 0.00 0.00 0.00 49 1009.7
20260831143755 16 261 20.9 46.7 0.00 0.03 0.00 48 1009.5
20260831142239 16 246 22.5 38.6 0.00 0.03 0.00 49 1009.4
20260831140744 16 240 24.1 45.1 0.00 0.03 0.00 48 1009.2
20260831135250 15 224 22.5 35.4 0.00 0.03 0.00 50 1009.1
20260831133751 15 227 30.6 30.6 0.00 0.03 0.00 50 1008.9
20260831132254 14 227 14.5 29.0 0.00 0.03 0.00 51 1008.8
20260831130740 13 200 14.5 27.4 0.00 0.03 0.00 52 1008.9
20260831125300 13 207 20.9 32.2 0.00 0.03 0.00 52 1008.7
20260831123800 13 194 19.3 29.0 0.00 0.05 0.00 53 1008.6
20260831122246 13 223 20.9 29.0 0.00 0.05 0.00 54 1008.6
20260831120748 13 205 24.1 32.2 0.00 0.05 0.00 54 1008.3
20260831115313 14 204 14.5 29.0 0.00 0.05 0.00 52 1008.5
20260831113752 15 218 9.7 27.4 0.00 0.08 0.00 51 1008.3
20260831112258 14 207 11.3 24.1 0.00 0.08 0.00 53 1008.3
20260831110743 14 229 20.9 27.4 0.00 0.08 0.00 53 1008.3
20260831105249 14 258 14.5 24.1 0.00 0.08 0.00 53 1008.4
20260831103753 14 205 25.7 27.4 0.00 0.08 0.00 53 1008.4
20260831102252 13 224 19.3 32.2 0.00 0.08 0.00 53 1008.4
20260831100755 13 217 14.5 29.0 0.00 0.08 0.00 53 1008.5
20260831095241 13 219 16.1 25.7 0.00 0.08 0.00 54 1008.3
20260831093804 12 207 11.3 19.3 0.00 0.08 0.00 55 1008.1
20260831092244 12 213 8.0 17.7 0.00 0.08 0.00 55 1008.0
20260831090749 13 229 9.7 19.3 0.00 0.08 0.00 54 1008.0
20260831085250 12 230 9.7 20.9 0.00 0.08 0.00 55 1008.0
20260831083755 11 191 3.2 6.4 0.00 0.08 0.00 58 1008.0
20260831082257 11 194 6.4 6.4 0.00 0.08 0.00 57 1007.9
20260831080819 11 169 4.8 9.7 0.00 0.08 0.00 57 1008.0
20260831075308 10 189 3.2 3.2 0.00 0.08 0.00 63 1008.8
20260831073749 10 189 0.0 0.0 0.00 0.08 0.00 63 1008.9
20260831072249 10 189 0.0 6.4 0.00 0.08 0.00 61 1009.0
20260831070757 11 189 1.6 3.2 0.00 0.08 0.00 59 1009.3
20260831065240 11 189 1.6 4.8 0.00 0.08 0.00 59 1009.3
20260831063748 11 189 3.2 6.4 0.00 0.08 0.00 58 1009.2
20260831062253 12 189 4.8 8.0 0.00 0.08 0.00 58 1009.4
20260831060815 12 161 1.6 9.7 0.00 0.08 0.00 57 1009.4
20260831055259 12 145 8.0 11.3 0.00 0.08 0.08 58 1009.2
20260831053800 13 138 8.0 9.7 0.00 0.08 0.08 56 1009.4
20260831052241 11 156 1.6 6.4 0.00 0.08 0.08 62 1009.5
20260831050809 12 244 1.6 4.8 0.00 0.08 0.08 59 1009.6
20260831045248 12 244 0.0 0.0 0.00 0.08 0.08 59 1009.6
20260831043747 12 243 0.0 3.2 0.00 0.08 0.08 59 1009.6
20260831042312 12 244 1.6 3.2 0.00 0.08 0.08 58 1009.6
20260831040752 12 244 0.0 1.6 0.00 0.08 0.08 59 1009.5
20260831035257 12 244 0.0 3.2 0.00 0.08 0.08 56 1009.5
20260831033759 13 243 0.0 0.0 0.00 0.08 0.08 52 1009.2
20260831032301 15 244 0.0 0.0 0.00 0.08 0.08 50 1009.4
20260831030747 15 243 0.0 3.2 0.00 0.08 0.08 49 1009.4
20260831025249 15 244 0.0 1.6 0.00 0.08 0.08 48 1009.3
20260831023751 16 243 3.2 4.8 0.00 0.08 0.08 46 1009.0